Wind_Speed
89 92 95 98 100 101 101 103 109 109 110 111 111 109 110 106 103 105 101 100 100 98 92 92 91 90 89 86 83 81 80 77 78 74 73 74 75 79 77 74 72 74 76 78 79 77 72 76 79 79 77 74 74 75
81 84 86 87 89 89 89 89 90 90 88 87 88 90 89 85 83 84 83 81 77 76 75 74 71 69 68 68 66 66 67 69 71 73 73 74 77 76 73 70 71 72 74 75 77 76 78 76 76 76 76 75 74 72
73 76 79 82 83 82 82 81 81 81 80 80 80 79 78 76 73 73 74 70 66 67 68 65 66 66 67 66 67 69 69 71 72 73 73 75 75 73 70 69 70 72 73 75 75 74 74 73 74 76 73 71 68 65
68 67 69 73 77 78 78 77 77 76 75 74 73 71 71 71 71 71 72 71 69 68 70 69 70 70 69 69 69 69 70 70 70 71 73 74 73 70 69 69 70 74 75 71 69 71 72 73 74 71 66 63 60 59
66 65 64 65 67 69 73 74 73 72 70 69 69 69 70 72 73 73 74 73 72 72 69 70 69 68 68 67 67 67 67 68 70 70 69 69 69 66 66 67 72 73 69 66 66 68 66 68 68 63 60 60 59 58
63 62 62 60 60 61 63 66 67 68 68 68 67 68 70 70 69 68 69 69 70 70 70 68 67 65 65 65 64 64 64 65 66 66 67 68 66 62 61 65 71 66 64 61 58 58 60 62 63 65 64 60 58 55
60 59 59 58 56 56 57 58 59 60 61 60 61 62 63 65 66 65 66 66 66 65 64 62 60 59 58 57 59 60 61 61 62 63 63 63 61 60 58 62 61 59 57 56 56 58 60 60 64 64 62 59 55 52
57 57 56 54 52 52 52 53 54 54 55 56 58 58 58 58 57 57 56 56 55 54 51 50 51 52 54 55 56 58 58 57 57 58 59 58 59 58 55 56 56 57 59 59 60 61 60 60 58 58 54 52 47 46
48 47 47 48 49 49 50 50 50 50 50 50 49 50 49 49 49 49 48 47 46 45 47 48 50 52 53 54 54 55 55 55 56 57 57 57 59 58 55 57 57 59 59 61 59 57 55 55 53 50 47 45 44 44
39 41 42 43 43 43 43 43 43 43 43 44 44 45 45 45 44 44 44 45 46 47 49 50 51 52 52 54 55 55 56 55 55 57 56 56 61 60 56 57 58 58 57 55 54 52 48 48 47 46 46 42 41 39
33 34 34 35 35 36 37 37 38 38 38 39 39 39 39 40 41 43 45 47 48 49 50 51 51 52 53 54 55 55 55 55 54 56 56 56 61 57 55 55 55 53 51 47 47 46 44 46 46 44 42 39 40 37
27 29 29 30 30 31 31 31 32 32 33 34 36 37 40 42 43 44 45 47 47 48 50 51 52 53 54 55 55 54 54 54 54 54 55 55 54 52 53 53 49 47 45 44 42 44 44 43 39 39 38 32 29 31
23 23 24 24 25 27 28 29 31 33 34 36 37 38 40 41 42 44 46 47 48 50 51 52 53 53 53 54 54 53 52 52 51 52 52 50 49 49 48 46 44 44 43 42 40 40 39 37 35 32 29 25 24 23
20 22 24 25 26 27 29 30 32 33 35 36 37 39 41 43 44 46 47 48 49 50 50 51 51 52 51 51 51 50 48 47 48 48 46 45 44 44 44 44 42 42 40 38 37 33 33 29 26 24 21 18 17 16
22 23 24 25 26 28 29 31 32 33 35 37 39 40 42 43 45 46 47 47 48 48 48 48 48 48 47 47 48 46 45 46 45 45 44 41 42 42 41 40 38 36 35 34 31 28 24 21 18 16 13 13 12 13
20 22 23 24 26 27 29 30 32 34 37 39 40 41 43 44 44 44 45 45 45 46 45 45 45 45 45 44 45 43 45 44 42 42 41 40 40 39 36 34 33 32 30 27 23 19 17 13 10 9 10 11 13 15
20 22 23 23 24 25 27 30 33 37 39 40 41 42 42 42 42 42 42 43 43 43 43 43 43 43 42 42 43 42 43 42 40 39 38 37 35 32 32 30 30 27 23 20 16 14 11 7 8 11 13 15 18 19
19 19 20 21 24 28 31 33 35 37 38 39 39 39 39 40 40 41 41 41 41 40 41 41 42 43 39 42 41 40 41 39 37 35 33 32 30 30 29 27 23 20 17 14 12 11 8 9 15 17 19 20 20 20
19 19 23 27 30 32 34 35 36 36 37 37 38 38 38 39 39 39 39 39 39 40 40 41 40 42 39 38 39 38 35 36 33 32 30 29 27 25 22 20 18 15 14 12 11 11 13 18 22 23 22 21 20 19
22 26 30 32 34 35 36 36 36 37 37 37 38 38 38 39 39 39 39 39 39 39 39 39 38 37 37 35 35 33 33 30 28 27 24 22 19 18 18 16 14 13 12 13 15 17 21 25 26 25 24 23 22 21
29 32 34 36 36 37 37 37 37 37 37 37 36 35 35 36 36 36 36 37 36 36 36 36 35 33 33 31 28 26 24 22 21 19 17 16 16 17 16 14 14 14 16 17 21 25 28 29 29 27 26 26 26 27
35 36 36 36 36 36 36 35 35 34 34 33 33 33 33 33 33 34 33 33 33 32 32 31 29 27 24 22 20 18 18 16 14 14 14 15 15 15 15 16 16 17 20 23 28 31 32 32 32 29 28 28 29 30
36 35 34 34 34 34 34 33 33 32 33 33 33 32 31 30 30 29 28 28 27 26 25 24 22 19 17 16 15 13 13 13 13 14 15 15 15 16 17 18 18 23 25 30 33 36 36 34 33 31 31 30 29 30
34 34 34 34 34 34 33 33 33 34 33 31 30 28 28 27 25 24 24 23 21 20 19 18 15 14 12 11 12 13 13 14 14 14 14 16 17 18 18 20 24 28 31 35 38 39 38 36 35 33 32 31 30 29
36 34 34 35 35 34 34 31 30 28 27 26 25 25 23 21 21 20 19 18 16 15 13 12 10 10 11 11 12 13 14 13 14 15 16 17 19 19 20 25 29 32 36 40 41 42 41 38 35 33 34 33 31 30
36 35 35 32 32 30 28 26 26 25 23 23 22 20 18 18 16 16 14 13 11 10 10 10 10 10 12 13 12 12 13 14 16 17 17 18 19 21 26 31 34 37 39 41 42 42 41 41 39 37 33 32 32 32
32 30 29 28 27 26 25 23 22 21 20 19 18 16 15 14 13 12 10 9 9 10 10 10 11 12 12 12 13 14 16 16 17 17 19 22 25 28 32 34 38 40 42 42 42 40 40 39 38 37 36 35 33 31
29 28 27 25 24 22 21 19 18 17 16 14 13 12 11 11 10 9 9 9 10 10 11 12 12 12 13 13 15 16 17 17 19 22 25 27 29 31 33 36 39 42 42 41 40 38 37 37 36 35 35 34 33 31
27 25 23 21 19 17 16 15 14 13 11 10 9 9 9 9 9 10 10 10 11 12 13 13 13 13 14 15 16 17 19 21 24 26 27 29 31 33 36 40 41 42 42 41 39 37 36 35 34 34 34 34 33 32
22 20 19 18 15 14 13 12 12 12 10 9 9 9 9 9 9 10 11 13 13 13 13 14 14 15 16 16 18 21 23 25 26 27 29 30 33 36 38 41 42 43 43 42 40 39 37 35 34 34 34 33 32 30
18 17 16 15 13 12 12 12 12 11 10 10 10 10 9 9 10 12 13 14 14 14 15 15 16 17 17 18 22 24 25 26 27 28 29 32 35 37 40 42 43 43 43 42 40 39 37 35 34 33 33 32 30 29
15 14 13 13 11 11 11 10 11 10 10 9 10 10 10 12 12 14 14 15 15 15 16 18 18 18 19 22 24 25 26 27 28 29 32 35 36 38 40 41 42 42 41 40 39 37 36 34 33 33 33 32 31 29
12 11 11 11 10 10 10 10 10 10 10 10 11 11 12 13 14 14 15 16 16 17 19 19 20 20 22 24 26 27 28 29 30 32 35 37 37 39 40 40 41 41 40 39 38 37 35 34 32 32 31 31 29 28
Wind_Direction
248 250 250 251 253 255 255 256 258 259 260 261 262 264 266 266 267 268 270 270 270 270 271 272 272 273 273 274 274 275 275 276 277 278 279 282 284 285 284 282 279 279 279 279 282 282 284 284 288 290 290 288 290 289
246 247 249 250 251 253 253 255 256 257 259 260 261 263 264 266 267 268 268 268 268 268 268 268 269 271 273 272 271 272 274 274 277 279 281 283 285 284 282 281 278 278 279 279 281 282 283 286 287 286 285 286 286 287
243 244 246 247 248 250 251 252 254 255 256 257 259 261 263 264 264 264 264 265 265 265 267 268 269 270 271 271 271 272 274 276 278 281 283 284 283 281 280 279 278 278 277 277 279 282 283 285 284 283 284 285 287 287
238 242 244 245 245 247 249 250 251 252 254 256 257 258 259 260 260 261 263 265 265 265 267 268 269 268 269 270 271 274 275 277 277 278 279 280 280 281 280 280 280 278 278 280 283 282 282 282 282 282 284 286 285 284
235 238 241 243 245 246 248 249 251 252 253 254 255 256 258 260 262 263 263 264 265 265 264 265 266 267 269 270 272 271 271 272 275 278 278 279 280 281 282 282 281 280 281 283 281 280 281 280 281 283 284 283 282 282
231 234 238 242 245 246 248 249 250 251 253 255 256 258 259 260 261 262 263 263 264 264 264 264 264 265 265 266 267 269 272 274 276 278 277 278 280 281 282 282 279 281 282 281 281 280 279 280 284 284 284 284 282 281
230 233 236 240 244 246 247 248 250 252 254 256 257 258 259 260 261 262 262 262 263 263 263 264 265 264 265 266 269 272 274 275 275 276 278 279 280 280 280 279 281 282 283 283 282 281 282 284 283 282 284 285 283 280
227 232 236 241 243 246 249 252 253 254 256 257 257 257 258 259 259 259 260 261 261 261 261 260 261 264 267 269 270 272 273 275 275 276 277 278 279 280 279 280 280 281 282 283 283 284 284 284 283 284 283 282 280 277
230 235 240 243 245 247 250 252 254 255 255 255 255 256 257 258 259 259 259 259 259 259 260 262 263 265 267 268 270 271 272 273 274 275 276 278 279 278 279 280 281 281 282 283 283 284 285 285 284 282 281 281 279 277
233 236 240 243 246 248 250 251 252 253 254 254 255 255 255 255 254 253 254 256 257 259 261 262 265 266 267 268 269 270 272 274 275 275 276 277 277 279 280 281 281 281 282 284 286 285 286 285 284 284 284 283 280 276
233 237 240 242 245 246 248 248 249 250 250 250 251 251 250 251 253 254 255 257 258 260 262 263 264 265 267 268 270 271 272 274 276 277 278 277 277 280 282 282 281 284 286 287 285 287 286 285 284 284 285 283 280 276
232 237 240 242 243 244 245 245 247 247 248 249 250 252 252 253 254 256 257 259 261 262 263 264 265 267 267 269 271 273 275 276 276 277 277 277 279 282 281 281 285 286 286 286 285 285 284 284 287 285 282 279 270 268
228 232 235 237 240 241 243 245 247 249 251 253 254 256 258 259 260 260 260 261 262 262 264 265 267 268 270 272 273 273 274 275 276 276 276 279 279 280 282 284 285 284 284 284 283 281 283 285 284 280 277 273 268 265
228 231 235 238 242 246 249 251 252 254 255 257 258 259 259 259 260 260 262 263 263 265 266 267 269 270 272 273 274 274 275 275 275 276 278 277 281 280 280 281 280 280 282 281 281 283 283 280 276 273 273 270 268 260
229 235 239 243 246 249 251 253 255 256 256 257 258 259 261 262 263 264 265 267 269 270 271 273 273 273 274 274 275 275 276 276 276 276 278 280 277 277 276 278 279 280 280 280 282 280 274 274 274 271 270 262 246 229
237 240 243 246 249 252 254 256 258 258 258 259 260 261 263 265 268 271 272 272 273 273 273 273 274 274 274 274 275 276 275 274 276 277 277 275 276 276 278 277 277 277 276 277 270 269 270 264 262 256 243 224 204 199
248 251 255 257 258 256 255 254 255 256 259 263 265 268 270 271 272 272 272 272 271 272 272 273 273 273 272 273 273 273 274 276 276 275 275 275 275 276 274 274 273 272 267 258 260 259 247 236 231 212 189 186 189 186
260 260 262 260 259 259 261 263 264 267 269 271 272 273 273 274 273 272 271 271 272 273 273 273 272 272 274 274 274 273 274 275 275 275 274 274 273 272 270 268 264 253 249 248 240 224 200 194 190 179 172 179 179 177
276 269 270 270 269 269 268 270 273 274 275 275 275 275 276 276 276 275 275 274 274 274 273 273 272 274 273 272 273 273 273 272 272 271 270 269 267 264 257 249 241 240 236 226 206 185 180 179 173 168 168 171 169 168
275 273 271 272 273 274 275 277 278 277 277 278 279 278 278 277 276 276 276 276 275 274 273 273 273 272 273 271 269 270 269 270 267 264 261 258 251 241 237 234 230 224 212 192 183 172 172 172 166 163 165 165 159 162
274 275 276 278 279 279 280 280 280 281 281 280 279 278 277 276 275 275 274 272 273 273 273 271 272 271 270 271 270 267 264 260 257 253 243 236 232 230 230 220 212 200 185 184 175 164 167 166 161 162 163 160 156 159
278 279 281 282 281 281 282 282 283 283 283 283 282 279 278 278 276 274 273 275 273 272 271 272 271 270 268 265 261 256 251 245 238 233 228 227 225 222 214 206 197 185 177 179 166 161 164 162 160 161 161 159 158 156
283 284 284 284 285 285 286 286 286 286 285 284 282 281 281 278 276 277 276 274 273 272 270 268 265 262 258 252 244 237 232 231 227 223 222 218 208 205 201 195 182 173 176 169 163 161 161 161 160 161 160 159 161 160
287 288 288 288 289 289 288 288 288 287 285 284 282 281 278 277 277 275 271 271 270 267 262 258 255 248 238 229 231 233 228 220 216 214 205 200 197 198 193 178 173 172 171 165 162 161 160 161 161 161 160 160 164 160
290 290 290 290 290 289 288 289 288 286 284 283 281 278 278 278 274 271 268 264 260 254 247 239 227 224 230 229 222 215 209 205 199 195 192 191 194 194 182 174 171 170 168 165 163 162 161 160 161 162 162 163 165 162
291 291 291 290 289 289 290 290 287 286 285 282 279 280 277 272 268 263 258 250 240 231 222 219 222 220 212 209 205 198 193 190 189 188 186 185 184 178 172 167 171 169 167 165 164 164 163 162 162 161 164 168 169 168
292 292 292 291 291 292 291 289 287 284 282 281 280 276 269 263 257 250 239 224 216 214 214 211 206 203 199 194 189 186 184 184 183 181 178 174 170 170 168 169 169 167 166 166 165 165 165 165 164 163 167 169 172 174
292 293 293 294 293 292 289 289 286 283 282 280 273 265 257 247 237 226 212 208 207 204 199 195 190 185 184 183 181 180 178 178 176 173 170 169 168 168 166 168 167 166 166 166 166 166 166 167 167 168 170 173 173 176
295 295 295 292 291 289 286 283 278 276 273 267 257 247 238 224 212 206 202 199 195 192 188 182 178 178 177 175 174 175 175 173 172 170 167 166 166 164 166 168 166 166 165 165 165 166 168 170 169 171 172 175 177 178
294 293 290 288 287 282 278 274 268 265 260 252 244 233 221 209 201 194 192 190 190 185 178 176 176 176 176 174 173 171 168 167 166 164 162 163 163 166 168 167 166 166 167 168 167 168 169 171 172 173 176 178 181 183
290 287 285 283 277 272 270 267 262 259 251 240 233 225 212 199 189 187 188 190 186 179 179 179 180 179 175 172 170 166 165 164 161 160 160 162 164 167 168 168 169 170 171 171 171 173 173 174 177 178 180 182 182 184
287 283 278 276 274 268 265 257 251 246 237 229 220 211 199 186 183 188 191 190 185 181 181 182 182 178 173 167 165 165 165 163 162 164 163 163 166 168 170 171 173 174 175 175 176 178 177 178 181 184 185 185 187 190
283 277 271 268 264 257 252 245 239 235 227 215 209 202 191 185 185 190 190 188 184 183 183 184 182 179 174 169 167 168 168 168 168 169 168 168 170 173 174 175 178 179 180 180 181 182 184 185 187 189 190 191 191 194
Height
10203 10211 10218 10226 10235 10243 10252 10258 10266 10274 10280 10280 10282 10288 10287 10297 10300 10299 10299 10300 10303 10301 10302 10303 10304 10305 10305 10306 10307 10305 10302 10304 10300 10303 10302 10301 10302 10299 10297 10295 10292 10289 10289 10288 10285 10286 10291 10287 10283 10283 10283 10277 10271 10267
10178 10187 10195 10202 10211 10219 10227 10233 10241 10247 10251 10254 10257 10259 10264 10273 10275 10273 10272 10275 10278 10277 10278 10280 10282 10282 10282 10284 10283 10283 10282 10280 10282 10281 10282 10280 10280 10277 10274 10274 10270 10270 10267 10267 10264 10264 10264 10268 10266 10261 10256 10253 10250 10248
10157 10165 10174 10181 10190 10197 10205 10211 10217 10223 10228 10233 10237 10240 10242 10248 10253 10249 10248 10254 10259 10257 10256 10261 10261 10263 10265 10264 10264 10264 10264 10263 10262 10261 10260 10258 10257 10255 10254 10252 10251 10249 10247 10245 10243 10245 10244 10243 10238 10234 10232 10230 10230 10227
10139 10147 10154 10161 10168 10176 10184 10190 10196 10202 10208 10213 10219 10223 10224 10225 10228 10231 10229 10232 10237 10240 10238 10241 10241 10243 10244 10245 10246 10246 10244 10244 10242 10240 10239 10238 10236 10235 10235 10234 10231 10224 10222 10226 10227 10222 10220 10216 10211 10210 10211 10211 10208 10205
10124 10131 10137 10143 10151 10160 10165 10170 10177 10183 10189 10194 10198 10202 10203 10204 10206 10208 10210 10212 10214 10215 10220 10220 10222 10224 10225 10226 10225 10225 10224 10223 10221 10221 10220 10218 10216 10218 10216 10213 10206 10200 10204 10206 10204 10198 10198 10192 10186 10188 10191 10188 10188 10188
10108 10116 10123 10129 10136 10143 10149 10154 10159 10165 10169 10174 10178 10181 10182 10183 10185 10188 10189 10191 10192 10194 10197 10200 10202 10204 10205 10204 10205 10204 10204 10204 10203 10203 10201 10199 10197 10199 10198 10191 10179 10184 10183 10182 10182 10180 10175 10172 10169 10163 10164 10166 10167 10167
10093 10102 10109 10116 10123 10128 10132 10137 10142 10147 10151 10156 10159 10161 10163 10165 10167 10169 10170 10172 10173 10175 10177 10180 10182 10183 10185 10186 10186 10186 10185 10185 10185 10183 10182 10181 10179 10178 10177 10169 10168 10166 10163 10161 10162 10160 10156 10155 10148 10144 10144 10143 10143 10142
10079 10088 10097 10104 10110 10115 10118 10122 10126 10130 10134 10138 10140 10143 10145 10147 10149 10151 10152 10154 10156 10158 10160 10163 10163 10166 10168 10168 10168 10168 10168 10169 10168 10167 10164 10163 10159 10157 10159 10154 10151 10149 10146 10145 10143 10140 10136 10132 10130 10126 10125 10123 10123 10122
10072 10080 10086 10092 10097 10101 10105 10108 10111 10115 10118 10121 10124 10126 10128 10131 10133 10134 10136 10138 10141 10143 10145 10147 10149 10150 10150 10151 10151 10152 10152 10153 10152 10149 10148 10146 10140 10138 10142 10138 10135 10132 10130 10126 10123 10121 10118 10113 10109 10107 10106 10105 10105 10104
10064 10070 10075 10080 10085 10089 10092 10095 10098 10101 10104 10107 10109 10112 10114 10117 10118 10121 10123 10125 10127 10129 10130 10132 10133 10134 10135 10135 10135 10136 10135 10135 10136 10132 10131 10130 10121 10121 10124 10121 10118 10115 10111 10108 10104 10101 10100 10095 10092 10090 10088 10089 10089 10088
10056 10061 10065 10070 10074 10078 10081 10084 10087 10090 10092 10095 10097 10100 10102 10104 10106 10108 10110 10112 10114 10115 10117 10117 10118 10119 10119 10119 10119 10119 10118 10118 10118 10115 10113 10113 10103 10105 10106 10101 10098 10096 10094 10093 10089 10085 10083 10080 10077 10076 10075 10074 10072 10071
10049 10053 10057 10061 10065 10068 10071 10074 10077 10079 10081 10084 10087 10089 10090 10092 10094 10096 10097 10098 10099 10100 10101 10101 10102 10102 10102 10102 10102 10102 10102 10102 10100 10098 10094 10092 10090 10089 10086 10083 10083 10081 10079 10077 10076 10072 10068 10065 10065 10063 10060 10060 10060 10059
10043 10047 10051 10054 10057 10059 10062 10065 10068 10070 10072 10074 10076 10077 10079 10080 10081 10081 10082 10083 10084 10084 10085 10086 10086 10086 10086 10086 10085 10085 10085 10084 10082 10079 10076 10076 10074 10072 10070 10069 10069 10066 10064 10063 10061 10059 10056 10055 10053 10051 10050 10051 10050 10051
10040 10043 10046 10048 10050 10053 10055 10057 10059 10060 10062 10063 10065 10065 10066 10066 10066 10067 10068 10068 10069 10069 10070 10070 10070 10070 10070 10069 10068 10066 10067 10066 10063 10061 10061 10060 10060 10058 10057 10055 10054 10053 10051 10050 10048 10047 10046 10045 10044 10043 10043 10043 10043 10043
10036 10039 10041 10043 10045 10046 10047 10049 10050 10051 10051 10052 10052 10053 10053 10053 10053 10054 10054 10055 10055 10055 10055 10055 10054 10054 10054 10052 10050 10050 10050 10048 10047 10047 10046 10048 10046 10044 10043 10043 10042 10041 10039 10037 10037 10037 10037 10037 10037 10037 10038 10038 10037 10038
10032 10034 10035 10037 10038 10039 10040 10041 10041 10041 10040 10040 10040 10040 10040 10040 10041 10041 10041 10041 10041 10040 10040 10039 10038 10038 10037 10037 10035 10035 10033 10033 10034 10034 10034 10033 10032 10031 10031 10030 10030 10029 10028 10028 10028 10029 10030 10030 10032 10033 10033 10034 10035 10036
10027 10029 10030 10031 10032 10032 10031 10030 10029 10029 10029 10029 10029 10029 10029 10029 10028 10028 10027 10027 10026 10026 10026 10025 10023 10023 10023 10023 10020 10021 10020 10020 10020 10020 10021 10020 10019 10020 10019 10019 10018 10019 10020 10021 10022 10023 10025 10027 10029 10030 10030 10032 10034 10035
10022 10022 10022 10022 10021 10021 10020 10020 10019 10019 10018 10018 10017 10017 10016 10016 10015 10014 10013 10013 10013 10013 10012 10010 10009 10007 10010 10007 10007 10008 10006 10006 10007 10007 10008 10007 10008 10008 10008 10009 10010 10011 10013 10014 10017 10019 10021 10024 10026 10028 10030 10032 10034 10037
10015 10014 10013 10012 10011 10011 10010 10009 10008 10008 10007 10006 10005 10004 10003 10002 10001 10000 10000 9999 9998 9998 9997 9995 9995 9993 9994 9995 9993 9993 9994 9994 9995 9995 9996 9996 9997 9998 9999 10001 10003 10005 10007 10010 10014 10016 10020 10023 10025 10027 10030 10034 10037 10042
10007 10005 10003 10002 10001 10000 9999 9997 9996 9995 9994 9993 9992 9991 9990 9988 9987 9986 9985 9984 9983 9982 9982 9981 9981 9981 9981 9981 9981 9982 9982 9983 9984 9984 9986 9987 9989 9991 9993 9995 9998 10000 10004 10007 10011 10014 10019 10022 10024 10028 10031 10036 10041 10046
9996 9994 9993 9991 9990 9989 9987 9986 9984 9982 9981 9980 9978 9977 9976 9975 9974 9973 9972 9971 9970 9970 9969 9969 9969 9969 9969 9970 9971 9971 9972 9972 9974 9976 9978 9980 9983 9985 9987 9990 9993 9997 10001 10005 10009 10014 10019 10022 10025 10029 10034 10039 10044 10049
9985 9983 9982 9981 9978 9977 9975 9974 9972 9970 9969 9967 9966 9964 9963 9963 9961 9960 9960 9959 9958 9958 9957 9957 9958 9958 9959 9960 9961 9962 9963 9965 9968 9970 9972 9974 9977 9980 9983 9986 9990 9995 9999 10004 10009 10014 10020 10023 10027 10032 10037 10042 10047 10051
9974 9973 9972 9969 9967 9966 9963 9962 9960 9958 9956 9955 9953 9952 9951 9950 9949 9949 9948 9947 9947 9947 9947 9948 9948 9949 9951 9952 9954 9956 9958 9960 9963 9965 9967 9970 9973 9976 9979 9983 9988 9993 9998 10004 10009 10015 10021 10026 10030 10035 10040 10045 10050 10055
9964 9962 9960 9958 9956 9953 9951 9949 9948 9946 9944 9942 9941 9940 9938 9938 9938 9938 9937 9937 9938 9938 9939 9940 9941 9943 9944 9947 9949 9950 9953 9955 9957 9960 9963 9966 9970 9973 9977 9983 9988 9993 9999 10004 10010 10017 10023 10028 10033 10038 10043 10049 10054 10059
9953 9951 9949 9947 9944 9942 9939 9938 9936 9934 9933 9931 9930 9929 9928 9929 9928 9928 9928 9929 9930 9931 9932 9934 9936 9938 9939 9941 9943 9945 9948 9951 9954 9957 9961 9964 9968 9972 9977 9982 9988 9994 10000 10005 10012 10018 10024 10030 10036 10041 10046 10052 10058 10063
9942 9940 9937 9935 9932 9930 9929 9927 9925 9924 9923 9921 9920 9921 9920 9920 9920 9921 9922 9923 9924 9926 9928 9930 9932 9933 9935 9937 9940 9943 9946 9949 9952 9956 9960 9964 9968 9972 9977 9983 9989 9995 10001 10008 10014 10020 10025 10031 10036 10042 10049 10055 10061 10066
9930 9928 9926 9924 9922 9921 9919 9917 9916 9915 9914 9913 9913 9913 9913 9914 9915 9916 9918 9919 9921 9923 9925 9926 9928 9930 9933 9936 9939 9942 9945 9948 9952 9955 9959 9963 9967 9972 9977 9983 9990 9996 10002 10009 10016 10022 10028 10034 10040 10045 10051 10056 10062 10068
9919 9917 9916 9914 9913 9912 9910 9909 9908 9907 9907 9907 9907 9908 9908 9909 9911 9913 9915 9917 9918 9920 9922 9924 9927 9929 9932 9935 9938 9941 9945 9948 9952 9955 9959 9963 9967 9973 9979 9985 9992 9998 10005 10012 10018 10025 10031 10037 10042 10047 10052 10058 10063 10069
9909 9908 9906 9905 9905 9904 9903 9903 9902 9902 9903 9903 9904 9904 9906 9907 9909 9911 9913 9914 9916 9918 9921 9924 9926 9929 9932 9935 9938 9942 9945 9948 9951 9955 9959 9964 9969 9974 9980 9986 9993 10000 10007 10013 10020 10027 10033 10038 10043 10048 10053 10058 10063 10068
9900 9899 9899 9898 9898 9898 9898 9898 9898 9898 9899 9900 9901 9902 9904 9906 9907 9909 9911 9913 9915 9918 9921 9924 9926 9929 9932 9936 9939 9942 9945 9948 9952 9957 9961 9966 9971 9977 9983 9990 9995 10001 10008 10014 10019 10025 10032 10038 10043 10048 10054 10058 10063 10068
9893 9893 9892 9892 9893 9893 9893 9893 9893 9894 9895 9897 9898 9900 9902 9904 9905 9907 9909 9912 9914 9918 9921 9924 9926 9929 9933 9936 9940 9943 9946 9950 9955 9959 9964 9969 9974 9980 9986 9992 9998 10003 10009 10015 10021 10027 10032 10038 10044 10049 10054 10059 10063 10068
9888 9888 9887 9888 9888 9888 9888 9888 9889 9890 9892 9894 9895 9897 9900 9902 9904 9906 9908 9911 9914 9917 9921 9923 9926 9930 9933 9937 9940 9944 9948 9952 9957 9961 9966 9972 9977 9983 9989 9995 10001 10007 10012 10017 10023 10029 10034 10039 10044 10050 10054 10058 10063 10066
9883 9883 9883 9884 9884 9884 9885 9885 9886 9888 9889 9891 9893 9895 9898 9900 9902 9904 9907 9910 9913 9916 9919 9922 9926 9930 9933 9937 9941 9945 9949 9954 9958 9963 9968 9974 9979 9985 9991 9996 10002 10007 10013 10018 10023 10028 10033 10038 10043 10048 10052 10056 10060 10064